Home   Weather   Wailuku   Past weeks

Flag for USA Past Weather in Wailuku, Hawaii, USA — Yesterday and Last 2 Weeks

Now
73 °F

Scattered clouds.


Feels Like: 72 °F
Forecast: 73 / 87 °F
Wind: No wind

Location: Kahului Airport

Current Time: Apr 23, 2017 at 8:14:04 am

Latest Report: Apr 23, 2017 at 6:54 am


Visibility: 10 mi

Pressure: 30.06 "Hg

Humidity: 84%

Dew Point: 68 °F

Location of WailukuLocation

Past Weather in Wailuku — Graph

°F

Wailuku Temperature Yesterday

Maximum temperature yesterday: 86 °F (at 1:54 pm)
Minimum temperature yesterday: 69 °F (at 5:54 am)
Average temperature yesterday: 77 °F

High & Low Weather Summary for the Past Weeks

 TemperatureHumidityPressure
High88 °F (Apr 21, 1:54 pm)100% (Apr 20, 11:01 pm)30.16 "Hg (Apr 20, 11:01 pm)
Low62 °F (Apr 16, 5:54 am)48% (Apr 8, 10:54 am)29.92 "Hg (Apr 11, 3:54 pm)
Average76 °F73%30.03 "Hg
* Reported Apr 8 6:54 am — Apr 23 6:54 am, Wailuku, Weather by CustomWeather, © 2017

Note: Actual official high and low records may vary slightly from our data, if they occured in-between our weather recording intervals... More about our weather records

Advertising

Wailuku Weather History for the Previous 24 Hours

Scroll right to see more
 ConditionsComfort  
Time TempWeatherWind HumidityBarometerVisibility
6:54 am
Sun, Apr 23
73 °FScattered clouds.No wind84%30.06 "Hg10 mi
5:54 am71 °FPassing clouds.3 mph87%30.03 "Hg10 mi
4:54 am71 °FClear.9 mph87%30.01 "Hg10 mi
3:54 am73 °FPassing clouds.5 mph81%30.01 "Hg10 mi
2:54 am73 °FPassing clouds.12 mph84%30.02 "Hg10 mi
1:54 am75 °FOvercast.9 mph76%30.03 "Hg10 mi
12:54 am74 °FPartly cloudy.13 mph79%30.06 "Hg10 mi
11:54 pm
Sat, Apr 22
75 °FPassing clouds.9 mph71%30.06 "Hg10 mi
11:13 pm73 °FPassing clouds.9 mph89%30.05 "Hg10 mi
11:06 pm73 °FLight rain. Passing clouds.10 mph89%30.05 "Hg9 mi
9:54 pm76 °FPassing clouds.10 mph77%30.06 "Hg10 mi
8:54 pm76 °FPassing clouds.13 mph74%30.06 "Hg10 mi
7:54 pm76 °FPassing clouds.20 mph74%30.04 "Hg10 mi
6:54 pm76 °FPassing clouds.16 mph74%30.02 "Hg10 mi
5:54 pm78 °FScattered clouds.16 mph71%30.00 "Hg10 mi
4:54 pm79 °FPartly sunny.15 mph69%29.99 "Hg10 mi
3:54 pm80 °FPartly sunny.16 mph67%29.98 "Hg10 mi
2:54 pm83 °FScattered clouds.20 mph61%29.98 "Hg10 mi
1:54 pm86 °FScattered clouds.25 mph57%30.00 "Hg10 mi
12:54 pm85 °FBroken clouds.29 mph59%30.01 "Hg10 mi
11:54 am85 °FScattered clouds.21 mph59%30.04 "Hg10 mi
11:21 am84 °FScattered clouds.20 mph55%30.03 "Hg10 mi
10:54 am83 °FScattered clouds.12 mph59%30.05 "Hg10 mi
9:54 am82 °FScattered clouds.5 mph58%30.06 "Hg10 mi
8:54 am81 °FScattered clouds.14 mph58%30.07 "Hg10 mi
Weather by CustomWeather, © 2017

See weather overviewHow to use our weather pages